GFSNW_2pvu_pres_222.txt.gz
Presure
191 192 139 207 204 183 205 158 190 189 176 213 204 204 205 228 231 234 252 289 247 351 338 293 297 284 288 298 307 300 316 318 315 319 306 297 289 280 272 271 270 268 260 259
183 174 200 151 206 174 184 198 193 187 205 204 207 205 201 228 235 249 243 281 284 322 307 310 311 305 293 286 311 298 280 303 299 302 290 285 271 270 268 264 267 262 263 250
178 183 154 204 206 166 201 184 208 203 209 193 218 210 211 218 242 264 243 305 299 309 311 332 303 344 340 293 279 300 294 294 300 301 287 282 274 272 263 260 259 263 261 243
191 169 186 192 174 191 158 201 203 191 178 204 215 210 225 223 231 253 234 311 309 315 308 301 298 297 289 273 283 298 301 300 297 293 288 287 272 262 261 257 255 265 247 248
189 194 197 197 185 194 190 201 197 201 208 210 213 202 229 234 247 324 350 332 349 350 356 352 349 347 331 326 287 306 309 254 297 294 286 287 270 258 264 263 260 262 256 253
189 160 194 193 193 193 196 203 204 192 205 204 213 217 239 254 239 328 319 343 301 298 297 293 298 298 318 320 330 299 309 298 304 301 285 278 275 270 259 255 266 261 260 252
181 192 195 193 182 202 180 192 192 209 207 205 208 221 247 234 270 319 312 314 325 313 320 321 318 307 301 298 306 332 319 290 296 299 305 296 273 277 271 263 260 261 265 266
189 198 189 195 193 186 205 193 202 206 198 217 218 227 250 256 323 335 336 335 325 324 342 330 338 342 335 343 333 309 287 324 319 311 304 304 298 287 285 275 271 269 263 266
187 196 187 210 195 203 194 203 202 208 215 202 215 246 268 327 340 357 346 336 325 339 296 330 337 307 308 309 312 321 334 340 299 285 324 232 293 296 302 291 283 276 282 273
196 183 178 188 197 191 183 205 207 196 207 215 234 267 253 362 353 324 318 297 318 128 332 318 306 319 328 338 342 346 357 349 331 338 331 94 277 126 322 312 301 300 290 283
193 191 188 192 197 196 206 210 208 211 211 172 263 264 274 329 334 316 346 329 160 364 338 315 229 411 479 475 303 456 457 384 362 202 365 330 251 311 313 308 138 303 307 307
195 187 206 201 205 191 201 211 199 210 193 181 162 342 357 98 387 398 388 382 94 149 281 129 441 96 415 127 486 477 486 496 421 167 497 269 326 301 367 378 338 292 286 326
181 196 204 205 190 204 205 198 211 206 255 339 85 328 392 172 406 400 371 320 327 442 109 263 379 151 444 155 430 433 223 378 104 118 125 427 89 427 431 435 444 458 456 458
207 192 202 199 188 203 217 225 230 244 265 415 283 374 404 365 75 332 324 445 447 433 107 382 412 372 444 424 403 409 323 104 104 106 379 121 118 387 396 400 391 406 399 403
192 204 199 194 211 216 212 225 213 258 264 435 321 417 78 348 141 387 478 396 457 446 439 450 402 382 428 386 393 389 387 102 97 91 363 124 114 94 325 387 374 373 377 372
207 191 205 216 207 223 223 235 247 267 272 433 412 366 337 323 484 435 483 478 473 464 103 435 90 411 355 373 301 338 107 240 363 103 348 218 118 342 356 374 360 356 371 363
208 187 214 213 213 214 231 261 335 400 414 384 352 334 357 465 470 467 467 464 475 438 405 374 367 369 343 345 348 339 338 337 328 324 326 127 254 331 339 338 329 338 326 327
193 207 215 203 212 236 255 366 415 403 358 344 326 360 500 470 478 486 479 473 475 403 370 355 354 334 341 333 321 318 314 199 317 81 334 334 325 323 331 330 325 325 325 342
214 218 202 220 231 267 308 393 367 350 340 326 399 457 453 470 466 478 459 439 394 335 351 341 347 334 311 307 305 310 303 304 253 298 277 314 304 333 333 333 327 311 309 331
217 227 226 237 232 336 406 357 348 344 328 351 442 446 444 460 463 480 439 405 332 341 337 333 320 309 314 305 306 304 299 300 297 298 303 312 318 321 194 316 323 110 335 333
220 227 215 271 336 332 350 346 346 336 361 451 440 446 456 453 477 440 391 329 320 342 333 319 306 303 305 294 298 305 306 305 332 337 347 361 366 311 307 318 321 328 335 223
227 238 273 309 327 335 357 348 343 377 419 441 445 456 465 475 446 342 340 355 325 344 324 311 306 295 294 293 298 325 337 340 325 321 324 325 330 328 313 311 315 345 338 182
244 267 336 339 316 330 351 355 392 398 438 446 464 390 377 362 359 352 355 355 340 309 314 300 293 290 295 313 308 318 329 349 337 322 323 317 316 315 315 334 340 320 369 172
286 332 325 321 316 452 428 408 400 435 431 376 357 345 341 361 356 347 334 314 309 304 296 291 287 291 303 299 303 315 322 344 334 333 333 354 343 338 329 328 368 360 109 131
326 329 311 331 444 432 405 394 419 428 375 358 346 350 351 335 321 315 310 301 303 297 285 285 290 284 298 287 293 301 317 330 343 337 332 333 326 314 342 343 108 135 254 170
322 373 386 428 430 405 389 383 429 415 364 348 334 331 322 314 313 303 300 305 302 286 282 285 272 273 294 288 296 294 306 331 326 349 345 330 318 91 91 94 113 322 252 330
401 406 445 430 406 387 374 378 417 389 354 336 330 325 316 317 306 310 307 307 288 282 285 270 269 294 257 289 292 294 302 324 324 344 353 313 88 88 330 329 303 323 324 324

GFSNW_2pvu_pres_225.txt.gz
Presure
169 179 117 173 166 201 192 188 184 202 203 199 195 193 195 199 200 202 217 224 238 257 278 369 349 376 361 323 312 306 344 347 282 305 301 306 304 318 316 316 298 290 275 267
109 181 143 193 180 205 158 191 188 173 201 189 192 189 199 205 210 206 211 235 253 285 356 361 368 318 307 305 357 311 303 330 320 300 301 277 297 299 309 312 294 289 281 263
198 173 181 182 173 179 188 178 189 184 201 189 193 205 201 207 211 215 210 237 253 301 333 351 356 330 321 307 302 323 318 304 334 282 288 297 293 289 297 305 302 280 273 258
153 191 171 191 187 205 191 184 190 205 204 188 197 200 203 208 197 218 221 238 255 345 356 341 343 342 333 331 324 336 311 327 335 317 280 299 296 288 285 290 289 291 267 256
167 184 178 155 167 194 202 181 202 185 200 187 204 206 204 211 195 204 230 258 265 356 352 364 356 338 334 330 318 319 314 315 329 326 309 294 294 291 291 290 285 288 266 256
181 168 158 193 176 193 181 203 180 200 205 201 205 191 211 218 220 212 227 285 373 359 357 360 328 294 299 300 297 325 334 321 316 297 320 307 303 297 292 291 288 288 282 267
187 199 170 193 188 203 180 186 193 194 204 187 211 191 195 208 206 227 306 331 387 369 371 369 372 367 356 312 334 308 318 334 346 332 269 330 308 307 219 293 291 285 286 274
190 184 177 194 198 190 201 192 204 184 204 200 202 194 210 211 225 317 383 409 406 368 397 369 394 386 373 358 350 340 337 317 304 308 357 343 301 326 316 301 296 290 279 281
189 188 176 178 194 172 202 184 200 210 184 216 207 217 205 231 256 344 379 413 415 415 403 402 396 400 393 376 361 343 321 320 316 320 318 312 311 344 294 317 306 294 293 286
183 192 171 197 182 206 206 197 202 198 209 202 216 221 143 212 350 417 418 412 419 406 113 294 321 322 346 435 435 433 443 462 433 442 441 385 132 111 322 320 296 316 303 295
190 175 177 197 180 203 199 200 202 206 200 195 209 230 225 240 383 416 434 188 347 248 335 439 305 254 98 104 398 401 395 347 436 483 481 246 242 121 299 330 333 281 294 313
173 173 193 200 199 215 200 192 211 214 212 201 205 230 242 429 92 409 352 333 332 348 474 428 92 91 95 395 380 127 171 420 428 440 445 449 451 375 273 446 453 337 334 329
193 194 191 199 207 205 191 204 217 203 212 220 213 232 346 143 365 352 334 351 219 464 425 440 461 447 386 469 408 414 220 134 112 397 268 113 357 133 353 308 90 443 449 370
175 192 211 209 213 192 186 204 227 222 221 232 116 244 410 361 300 346 513 427 78 419 461 452 447 433 463 404 387 402 383 379 374 363 377 104 128 147 97 114 115 411 414 421
192 212 206 210 202 202 216 222 208 224 233 226 235 365 273 363 200 493 495 483 463 444 462 448 427 448 410 186 377 360 360 344 362 356 362 102 85 290 370 364 124 310 344 388
179 205 196 202 197 217 199 221 221 227 237 247 348 354 362 392 470 482 473 476 473 469 458 424 378 354 390 377 366 362 347 348 347 335 329 89 96 99 101 328 327 345 355 363
202 219 199 210 215 199 216 211 216 230 248 331 341 372 396 471 464 470 472 480 498 425 432 371 372 350 348 356 344 328 330 329 131 334 332 341 173 322 163 349 328 325 328 336
203 194 217 218 202 228 226 217 229 235 260 349 441 441 479 465 466 471 485 468 427 363 350 339 362 349 324 324 324 317 307 315 314 317 202 209 298 319 321 326 326 340 332 335
201 225 205 212 216 222 230 233 242 227 347 492 471 459 458 463 467 481 452 426 387 344 341 338 333 328 313 316 311 306 300 296 299 304 192 314 373 376 322 323 316 325 322 322
196 217 222 219 226 231 232 249 243 353 440 440 454 449 454 469 479 471 438 359 341 353 334 324 321 311 306 300 297 297 299 302 300 318 316 309 286 356 352 315 319 318 322 315
216 219 216 224 230 235 228 318 427 425 435 438 449 461 477 493 450 417 357 348 340 356 332 314 307 303 301 317 321 328 327 347 349 326 330 332 328 326 332 336 320 322 135 337
207 216 223 235 227 232 433 443 460 440 410 447 406 376 379 409 357 352 341 331 331 325 314 305 302 299 295 305 320 318 320 329 347 334 322 326 322 322 321 321 226 338 370 370
223 224 233 235 231 384 444 466 431 414 399 429 372 356 350 352 351 365 363 337 323 303 302 295 296 296 302 303 308 309 317 332 353 337 330 341 344 338 337 349 358 370 383 391
210 230 241 216 376 441 467 441 420 395 438 395 364 347 350 364 361 335 319 310 310 302 289 298 286 295 291 293 297 303 313 334 331 340 339 329 323 338 341 352 339 350 339 330
236 247 250 434 451 463 446 419 403 384 426 383 350 354 348 347 322 315 309 313 296 288 291 283 285 293 270 292 296 300 315 332 341 361 339 316 332 329 335 313 326 323 317 246
247 376 453 440 456 442 418 394 386 374 411 375 342 327 334 322 317 310 314 306 289 292 287 282 288 280 274 288 300 297 314 330 334 340 315 335 328 323 317 314 317 322 162 126
473 448 450 449 435 411 394 381 375 373 409 363 341 332 321 303 307 312 315 296 286 285 277 282 274 274 284 297 287 299 320 332 332 320 329 326 315 293 302 303 302 300 190 292

GFSNW_2pvu_pres_228.txt.gz
Presure
133 161 163 137 181 188 146 175 195 145 179 152 206 181 187 205 182 201 196 208 210 218 210 225 359 378 381 369 353 356 343 351 319 298 328 328 318 308 308 308 307 312 310 274
172 168 153 172 195 180 200 189 190 197 179 209 207 195 193 196 201 182 207 210 211 209 226 226 394 343 339 365 356 351 324 341 334 313 339 310 316 312 299 303 309 306 311 314
175 146 184 188 168 172 190 156 174 202 183 199 203 195 185 203 210 193 213 219 224 209 235 317 344 330 358 367 362 357 352 337 334 333 324 305 320 311 305 302 289 294 310 301
173 147 182 133 180 179 183 193 196 184 210 205 195 179 203 199 206 203 207 213 216 233 273 347 335 405 392 378 367 365 364 356 305 285 328 348 286 307 309 300 297 301 281 298
171 190 150 153 177 185 151 161 169 186 198 210 202 205 217 196 209 199 205 209 218 226 359 349 404 418 408 398 384 376 380 370 365 317 302 334 336 331 308 300 304 308 289 289
193 152 174 169 193 188 191 198 170 191 196 191 207 224 194 195 215 198 220 231 231 319 356 424 418 416 414 414 405 392 385 379 375 363 333 293 315 315 334 316 302 303 295 294
196 134 171 172 194 174 179 202 177 199 208 190 192 218 211 214 215 207 223 241 249 352 414 437 406 355 336 330 326 360 393 390 387 377 361 342 300 324 325 328 323 304 302 298
161 162 190 179 179 202 200 188 188 209 221 214 209 214 204 203 210 219 233 237 324 357 377 367 353 333 325 328 346 343 336 331 321 325 384 364 327 313 341 324 332 323 305 305
181 162 183 191 193 187 192 192 204 199 191 202 214 198 219 214 228 221 233 322 348 370 371 355 357 477 460 446 432 432 435 418 430 445 343 309 348 335 321 324 346 311 329 310
172 169 185 178 195 195 198 188 200 190 209 201 204 226 217 229 225 224 220 351 184 377 372 476 465 465 451 436 137 305 307 418 413 409 439 422 453 303 318 310 300 315 348 318
163 183 181 194 194 176 196 178 201 197 181 213 219 226 221 227 238 240 359 370 383 473 492 485 488 467 452 460 91 206 404 285 380 377 368 361 438 449 414 398 361 319 308 321
163 183 190 178 196 181 206 211 208 177 215 207 206 230 217 219 225 243 366 386 250 434 486 474 465 464 454 436 431 442 384 274 380 402 405 389 401 408 134 117 429 105 455 372
184 191 182 161 188 190 201 212 181 206 213 209 223 216 233 235 183 289 433 522 456 470 452 272 465 448 430 466 417 407 404 390 393 378 304 371 369 382 393 401 402 157 419 433
189 171 193 192 190 202 213 191 207 208 206 220 226 224 231 253 294 459 245 478 474 464 460 459 457 425 423 406 369 391 370 356 357 361 360 350 352 368 377 186 252 270 381 394
180 189 193 194 184 192 195 179 213 222 227 200 228 238 247 286 465 441 469 489 487 484 463 457 438 413 393 406 347 338 360 339 336 339 339 328 107 110 114 106 105 158 115 363
195 167 205 176 206 201 190 214 224 227 204 213 221 232 250 468 447 454 476 491 504 495 487 384 379 356 380 371 353 348 332 333 319 333 311 302 313 324 315 96 98 103 331 189
184 196 181 203 213 182 216 211 234 220 232 237 238 254 352 456 457 470 483 485 473 403 384 372 363 343 349 332 332 326 329 327 326 323 320 321 323 315 358 97 132 338 203 328
191 177 179 212 187 213 220 211 244 215 239 226 242 454 478 465 470 485 486 465 387 377 341 329 342 342 314 315 313 315 312 318 318 309 312 318 312 334 137 334 327 324 337 334
195 181 209 204 213 210 205 220 228 233 224 252 455 462 478 491 497 494 429 380 358 335 338 334 333 303 311 315 314 308 324 330 328 321 317 329 296 309 338 352 89 327 328 327
196 209 210 200 224 215 210 228 227 225 248 298 441 463 413 439 517 440 398 360 334 321 330 313 319 309 307 310 314 318 322 330 351 334 327 318 320 314 291 274 346 326 317 320
198 220 204 205 244 229 235 225 231 247 321 452 421 412 390 378 361 361 359 337 318 324 321 313 309 314 315 297 301 313 330 337 350 333 336 330 332 329 323 322 330 343 352 384
192 210 212 232 216 231 237 237 250 439 440 419 426 392 372 361 356 359 336 339 325 314 310 308 320 310 285 305 302 310 324 342 329 336 318 336 337 335 337 351 354 353 365 367
217 212 246 219 227 239 239 247 329 450 422 401 404 374 363 359 369 370 362 331 313 303 300 304 292 302 287 300 306 303 324 340 340 358 343 325 332 340 331 333 328 337 336 249
221 243 210 234 236 233 252 287 456 427 407 392 397 375 353 342 354 341 316 311 306 298 293 292 298 288 284 297 308 309 327 340 358 345 325 332 330 326 314 318 321 325 327 329
219 232 247 236 253 251 451 448 427 412 394 384 391 367 349 337 339 320 303 308 292 295 294 288 294 275 286 306 299 316 333 319 309 328 321 326 311 316 307 307 303 305 319 326
237 249 225 247 435 459 437 420 406 394 386 402 383 349 338 319 321 315 309 306 299 292 286 283 286 274 288 300 302 322 342 319 326 320 316 310 303 300 302 296 303 302 310 319
232 232 243 453 457 424 417 401 392 386 380 421 380 346 331 319 312 312 308 304 298 286 282 273 284 272 281 284 305 331 330 320 322 301 302 299 297 289 298 294 290 298 303 294

GFSNW_2pvu_pres_234.txt.gz
Presure
175 156 151 164 174 163 170 167 161 150 191 188 186 173 204 161 202 180 177 199 187 204 210 216 223 216 222 237 240 288 355 368 372 343 339 379 380 344 344 345 331 335 332 325
170 152 148 162 144 153 179 164 192 148 154 177 184 171 161 171 191 195 177 198 205 198 208 223 220 217 233 254 290 312 368 366 384 364 352 353 382 356 345 339 337 328 333 329
158 144 172 166 162 158 176 167 194 144 157 169 177 200 174 166 195 189 195 205 200 198 195 234 224 246 235 308 356 411 405 405 392 382 368 352 364 374 359 344 338 327 297 325
160 168 160 146 173 151 188 154 186 184 165 187 195 168 172 195 197 189 197 200 205 205 198 229 230 240 244 410 435 427 427 416 408 399 378 360 339 322 316 355 338 330 309 323
149 174 157 163 177 153 180 186 174 193 198 154 155 184 194 188 186 198 194 205 213 206 218 234 251 241 459 452 465 456 444 412 418 407 392 377 353 323 304 305 355 336 322 322
178 152 157 135 172 153 186 186 189 187 149 200 171 170 185 193 201 199 199 201 215 211 209 238 255 369 495 476 487 485 469 463 476 433 410 391 374 348 321 307 338 351 340 324
167 157 160 188 165 169 185 177 188 148 185 188 175 178 187 177 200 203 197 211 223 219 227 247 508 495 485 491 464 457 453 465 459 446 433 402 387 370 349 324 312 360 345 345
172 160 163 182 185 160 184 173 181 179 192 180 201 198 177 194 189 179 188 221 208 240 249 364 480 500 471 457 457 447 444 437 430 419 416 437 425 418 377 358 329 310 366 353
173 180 174 189 183 173 177 168 192 188 193 208 203 177 189 191 192 184 188 221 222 248 300 494 461 478 463 279 447 447 444 442 425 418 102 363 90 407 416 411 367 335 312 364
169 170 182 194 181 189 181 191 187 174 165 187 190 196 181 183 202 198 232 210 254 236 447 486 485 463 455 464 456 443 435 435 431 417 413 379 371 273 360 302 407 401 396 321
174 184 180 162 186 189 181 191 164 153 189 188 177 187 197 203 190 190 217 255 240 470 500 484 467 473 435 451 450 472 384 402 393 390 383 383 389 385 372 348 382 398 399 415
189 170 189 182 177 187 166 195 174 188 202 185 192 192 211 201 201 211 228 243 247 474 487 481 485 465 450 446 403 390 400 377 374 364 362 360 365 367 368 368 360 369 372 381
174 185 184 198 174 184 179 182 191 190 185 197 189 204 201 212 201 230 244 246 470 488 487 492 431 438 411 384 374 370 362 358 356 355 352 357 353 352 346 347 348 351 358 366
169 186 194 172 176 192 189 190 197 201 172 193 204 204 210 193 221 235 250 321 494 502 503 447 379 399 403 375 356 362 335 337 334 327 324 334 328 328 324 325 320 328 343 346
169 184 186 189 187 199 197 195 202 178 207 192 195 201 220 208 246 248 392 515 512 488 396 366 373 362 346 330 323 324 316 310 315 318 309 309 309 300 309 310 314 182 173 99
161 184 171 161 198 201 197 198 193 171 189 199 205 194 211 231 244 410 530 511 452 401 370 355 337 345 327 321 310 321 321 325 312 317 322 311 307 309 310 309 311 350 98 171
183 187 162 194 198 197 190 200 170 194 202 209 200 201 220 240 266 441 443 400 377 366 358 341 338 313 325 319 322 322 316 322 334 335 329 352 356 342 325 331 314 184 182 290
198 174 198 194 190 191 198 173 191 204 187 208 188 206 236 255 444 419 398 382 365 358 325 334 313 325 318 307 311 310 311 323 330 338 340 349 337 339 341 341 328 294 338 356
181 190 193 182 187 202 179 202 206 191 206 186 213 240 247 455 417 401 390 375 363 343 331 321 323 303 307 305 306 307 313 321 328 332 349 333 327 325 326 316 308 300 341 334
176 193 168 180 192 172 211 199 207 197 189 213 220 266 446 445 414 395 390 376 349 335 315 310 305 304 299 306 304 309 325 330 353 344 352 330 329 319 329 329 328 328 335 344
189 167 183 201 175 204 208 191 211 195 215 224 267 282 426 409 402 388 375 362 350 330 308 303 298 302 297 305 307 327 333 355 349 333 324 327 325 318 310 310 312 315 323 320
182 188 207 186 196 218 195 198 192 225 227 264 291 429 428 416 395 379 371 380 350 313 314 306 305 293 278 306 320 340 316 326 334 333 327 310 299 301 305 314 324 328 312 320
206 198 180 200 208 206 200 190 230 220 261 274 430 421 405 409 394 371 365 357 322 315 299 301 291 282 295 300 345 319 328 323 322 309 297 298 295 301 310 318 317 313 326 341
201 178 203 220 194 205 193 232 225 266 259 436 420 411 438 401 386 360 359 324 322 306 301 291 287 277 296 345 325 327 321 309 307 295 299 297 301 302 303 315 312 319 336 338
175 202 201 181 206 197 231 230 263 361 432 421 414 404 393 399 381 363 348 321 314 305 295 290 287 296 289 329 321 315 311 300 300 292 289 294 294 284 289 312 312 338 311 322
214 211 194 221 213 211 226 281 410 431 420 413 399 392 391 416 383 363 340 323 314 301 294 286 285 291 288 323 313 300 295 296 295 288 288 287 291 285 286 314 288 299 309 315
207 208 226 236 221 293 273 432 428 420 417 403 397 398 385 404 386 354 338 321 318 305 296 284 282 283 286 315 306 301 290 300 292 285 284 276 266 284 286 277 281 299 294 291

GFSNW_2pvu_pres_240.txt.gz
Presure
167 165 169 165 171 153 163 156 167 154 174 170 167 147 191 168 149 190 181 210 190 195 205 206 176 179 203 219 233 234 295 333 535 500 490 89 442 424 277 380 97 358 340 322
152 164 168 168 161 169 168 166 170 171 169 170 190 186 182 158 186 156 179 199 167 197 181 176 181 207 221 230 230 276 336 459 476 512 486 449 441 423 399 382 369 358 333 338
166 171 175 176 165 177 172 165 169 167 152 174 173 188 191 183 192 188 172 204 181 189 179 204 204 217 227 231 262 420 498 492 494 485 86 483 411 403 406 382 360 347 342 327
185 179 174 173 173 172 171 153 180 164 179 192 171 185 183 182 181 191 182 198 177 207 211 195 200 229 230 236 464 507 493 483 469 455 446 451 440 399 396 386 370 350 345 333
167 187 186 192 169 171 177 172 152 176 195 186 188 142 173 206 195 205 179 177 191 193 193 208 211 236 237 283 506 486 481 467 456 452 432 418 413 425 397 387 376 356 350 337
187 190 196 197 165 190 181 183 187 179 161 154 188 196 197 198 177 196 183 173 169 192 212 218 232 243 247 479 491 487 477 463 448 427 423 411 413 415 406 395 384 373 351 342
186 206 193 146 187 181 198 175 187 184 192 189 195 169 192 205 174 182 175 174 199 190 200 212 224 245 493 490 488 464 460 453 444 430 415 397 397 408 413 411 404 384 372 349
205 173 201 201 193 158 188 153 175 190 189 199 187 183 198 179 199 175 178 197 207 200 218 221 240 269 496 487 465 461 447 441 421 419 408 409 388 393 400 390 422 405 400 375
161 164 181 198 159 188 195 178 172 184 190 191 170 197 207 188 170 205 191 193 183 215 211 232 248 505 498 435 461 434 423 417 407 395 384 376 374 370 364 381 378 311 253 411
199 155 190 178 187 177 180 203 181 189 192 174 202 163 198 191 202 184 218 198 194 212 225 236 264 426 400 385 375 358 353 354 360 361 373 368 350 366 363 351 361 376 96 331
198 193 163 187 184 195 200 185 182 197 196 179 195 200 195 173 204 209 193 209 223 220 237 262 428 407 387 370 349 349 348 342 332 330 330 325 329 343 332 334 338 344 353 354
187 161 185 185 174 204 173 184 189 188 203 202 201 212 182 213 192 211 223 202 211 230 243 319 405 388 369 354 353 342 337 328 335 339 329 317 308 311 311 315 320 320 331 337
172 173 189 209 196 195 205 196 198 177 185 160 210 172 189 185 205 196 223 210 221 243 277 393 383 369 354 343 336 331 336 327 317 322 332 336 335 335 318 311 340 313 319 323
201 194 197 212 204 196 202 188 204 190 194 193 179 196 191 209 217 186 221 217 235 263 336 394 377 357 358 337 322 323 317 316 326 332 332 336 342 336 341 354 326 340 337 341
212 204 204 214 187 204 195 180 200 210 163 165 217 209 209 224 201 221 211 229 247 263 404 389 362 354 340 332 328 322 326 326 331 335 347 341 337 344 338 336 332 335 337 343
186 193 215 199 202 184 192 196 173 183 219 183 197 192 228 192 214 220 230 237 264 418 397 379 354 344 337 324 319 316 334 341 357 362 355 351 337 338 337 332 334 331 317 328
209 193 199 221 170 182 188 193 207 203 191 186 205 202 209 201 225 228 227 264 258 407 391 369 349 339 328 319 308 328 345 320 330 347 345 341 329 318 319 317 317 321 315 322
217 192 219 191 180 157 212 204 174 204 197 207 192 213 185 219 231 238 257 254 403 401 374 373 340 329 318 314 304 334 345 342 344 334 318 314 308 302 306 313 322 324 323 322
171 220 172 165 170 197 190 176 199 186 217 220 216 203 216 216 231 251 252 393 413 379 377 363 335 316 311 305 321 355 337 338 313 302 303 300 312 314 314 312 316 323 335 351
191 206 205 165 195 186 203 199 204 196 216 201 197 221 205 203 279 257 275 423 395 393 376 341 317 320 312 306 351 333 330 311 311 309 308 308 317 312 311 315 321 325 329 330
211 178 183 191 183 205 181 211 207 209 211 211 220 208 229 268 263 259 432 412 382 382 360 329 322 306 305 327 337 328 311 312 301 300 294 301 321 322 305 319 340 350 358 356
209 176 180 204 182 195 210 167 209 203 215 206 214 224 259 266 259 427 416 405 388 371 324 324 316 307 305 343 328 317 307 298 300 291 285 293 316 299 315 308 306 322 330 337
209 211 204 217 207 211 174 201 200 200 221 219 230 254 275 254 438 425 431 405 378 343 334 312 311 302 304 333 321 311 296 296 296 295 291 316 286 301 291 295 293 306 326 334
202 210 180 222 216 175 201 206 210 199 216 244 255 259 252 441 434 417 407 394 375 359 334 317 309 301 305 324 308 302 296 293 292 290 284 289 290 291 284 287 288 293 315 323
199 196 192 197 202 206 214 213 216 237 239 250 265 252 341 432 418 427 402 400 371 356 328 312 306 295 303 315 302 301 288 288 287 281 284 283 282 277 286 276 279 284 289 299
196 195 211 204 211 217 221 230 253 223 224 263 248 367 432 414 409 406 422 407 368 349 332 312 305 294 297 312 304 297 293 287 278 277 276 278 278 277 275 281 274 269 277 284
196 209 213 207 217 230 257 234 241 214 265 244 343 445 414 418 401 392 420 400 369 349 331 315 304 294 292 313 300 295 290 289 276 274 272 269 273 272 271 273 266 266 273 270

GFSNW_2pvu_pres_243.txt.gz
Presure
186 140 170 160 178 197 195 177 180 188 190 172 186 188 191 194 197 183 198 171 205 179 196 180 194 186 185 216 194 233 250 279 505 529 492 466 435 439 441 431 419 95 380 346
175 153 198 194 175 170 198 191 192 188 187 189 192 183 191 169 181 190 190 195 188 211 171 200 173 180 204 196 227 248 262 472 489 501 490 469 439 422 425 411 405 381 365 343
181 169 193 198 161 175 171 178 200 133 195 189 194 203 156 205 170 208 194 192 191 195 192 186 176 200 196 216 245 255 432 493 488 84 448 455 426 238 415 394 383 374 364 357
168 135 168 159 173 161 215 213 185 129 186 165 210 209 208 144 198 199 193 205 203 204 199 174 179 170 186 231 251 272 502 493 489 467 445 436 435 415 405 394 378 374 368 367
165 157 163 196 223 233 146 217 173 158 133 195 186 215 219 194 193 212 212 186 177 184 180 204 185 188 235 247 256 523 486 441 467 440 448 429 420 425 420 406 387 386 375 368
168 209 198 188 162 198 185 198 153 156 173 177 198 183 223 214 199 203 204 193 189 204 194 185 209 230 232 251 265 482 496 476 457 456 431 417 413 392 414 415 413 390 380 370
173 175 175 166 176 160 158 138 181 191 174 225 197 206 218 216 196 195 204 190 186 188 177 218 221 223 243 278 419 392 377 388 437 422 407 411 400 392 392 401 408 411 400 381
183 188 204 176 154 184 190 203 192 171 181 218 207 216 199 157 187 167 172 194 193 215 214 204 228 231 247 263 395 375 367 364 354 356 395 326 374 371 372 390 400 385 400 410
183 163 153 205 183 152 195 189 202 183 215 199 210 204 184 177 215 211 206 208 192 220 207 217 220 243 283 399 379 377 367 352 356 354 344 338 344 353 352 353 349 363 376 384
179 191 179 173 175 176 186 196 195 184 196 214 212 193 223 208 197 202 221 188 205 219 207 221 236 261 325 374 375 359 350 349 339 332 340 343 334 326 332 331 327 348 343 353
157 202 190 187 170 186 191 178 197 198 196 214 191 194 214 210 189 189 208 211 223 225 219 233 241 277 395 379 353 343 341 339 328 327 338 330 330 339 329 327 321 322 331 334
189 172 200 194 191 193 138 189 204 171 214 173 214 212 188 189 166 209 193 218 202 210 219 239 270 396 382 354 350 340 327 327 332 350 346 344 331 330 337 334 332 308 321 326
204 186 187 183 183 176 196 174 182 213 217 169 159 188 164 183 217 209 217 212 211 229 231 243 266 394 377 353 339 337 322 315 354 351 366 364 359 343 348 351 350 355 353 331
172 169 152 174 157 195 195 169 229 192 195 198 216 186 190 212 198 212 220 203 215 215 247 278 400 383 368 351 335 330 314 332 342 344 362 358 351 346 339 339 331 330 340 341
192 181 162 195 199 169 203 225 229 190 158 212 210 225 184 207 199 217 203 224 229 251 281 327 372 380 360 344 331 321 307 351 329 339 338 338 327 323 322 321 326 325 321 325
181 170 186 193 205 173 212 232 175 221 210 154 158 230 169 201 192 215 222 223 229 258 260 406 389 375 354 339 328 319 372 339 348 337 318 313 311 308 309 310 312 317 316 320
165 165 189 196 191 205 181 229 225 187 162 227 217 174 206 212 218 217 224 209 257 262 321 397 390 374 345 324 323 316 350 348 317 311 309 309 315 316 314 312 316 323 334 340
172 179 169 190 205 196 194 224 212 188 186 191 209 200 200 222 207 225 206 247 276 259 391 399 384 351 330 326 316 356 345 315 301 303 305 307 315 315 318 321 323 325 329 341
192 188 184 195 198 189 228 214 222 216 187 176 178 216 220 221 223 237 247 259 256 280 404 397 377 333 324 321 316 346 320 310 308 301 304 334 315 323 310 323 331 369 362 368
186 175 226 198 231 231 182 223 212 187 208 221 205 214 222 199 230 251 234 267 262 409 370 389 356 325 321 313 344 326 318 305 308 295 321 314 316 295 306 312 316 325 332 326
179 175 204 213 205 206 217 209 211 221 232 212 213 224 215 210 250 255 255 261 376 404 383 380 344 324 316 311 337 314 306 303 304 292 314 302 293 297 299 309 327 331 339 344
184 215 188 194 200 176 168 210 215 210 221 208 231 218 235 267 248 285 254 293 421 407 369 371 340 324 312 309 331 310 300 300 300 297 298 301 289 292 289 298 325 335 349 338
201 217 204 216 173 226 212 208 224 215 210 225 225 241 263 238 273 252 261 427 422 388 377 361 333 322 310 319 320 307 296 298 295 289 289 282 282 286 283 296 304 303 306 306
233 179 172 167 201 198 211 218 204 214 224 231 240 261 265 258 246 255 426 388 416 396 375 357 330 315 305 309 305 304 291 289 289 288 285 281 281 277 283 271 276 282 289 294
162 184 218 196 197 217 217 220 216 220 231 237 232 246 262 249 252 406 418 414 418 400 369 353 329 313 301 307 305 303 290 285 286 280 281 276 284 289 272 268 274 280 274 279
225 167 219 197 216 217 222 210 223 234 249 200 255 266 244 253 430 429 409 405 419 395 368 352 326 313 300 304 303 302 291 286 281 279 275 275 273 275 276 267 268 264 266 273
194 188 213 210 224 215 233 221 233 241 262 268 244 246 250 441 428 420 406 395 413 396 367 348 330 314 300 293 301 305 293 289 283 278 281 272 271 266 260 264 266 267 257 264

GFSNW_2pvu_pres_249.txt.gz
Presure
174 127 174 147 170 179 187 201 172 178 154 186 157 164 191 192 143 166 197 194 203 184 210 233 234 234 227 202 178 240 225 228 192 277 274 272 426 466 479 447 427 431 394 372
162 154 169 174 174 184 194 190 196 156 183 190 178 187 199 149 176 185 175 202 192 172 200 214 185 236 227 222 205 219 238 218 264 280 268 390 394 400 457 443 412 430 399 370
157 170 175 173 186 184 189 188 191 131 200 183 179 196 200 137 177 153 178 205 213 212 218 218 243 245 217 195 217 236 237 252 287 258 406 394 383 379 434 431 422 409 408 372
139 157 157 181 191 186 197 202 161 177 190 150 189 179 205 180 185 199 207 198 198 216 229 231 214 222 238 206 220 199 245 281 266 279 383 377 363 359 368 409 425 428 406 398
174 169 173 170 189 207 178 174 177 167 167 214 214 190 136 195 198 185 208 199 202 192 166 238 210 239 210 233 219 239 283 277 256 388 372 355 343 358 363 354 385 393 409 438
161 177 185 194 175 197 178 157 200 209 212 172 202 146 190 180 140 170 198 207 218 186 213 196 240 189 193 230 233 249 236 248 381 368 362 348 328 359 357 346 346 352 353 371
154 165 179 182 153 197 182 160 150 170 204 171 187 203 166 160 167 170 206 200 212 189 230 202 239 209 225 228 242 280 258 359 379 360 345 325 353 357 351 344 335 344 332 336
173 146 174 176 193 158 205 159 198 207 210 224 177 213 194 182 156 208 189 211 197 217 189 237 246 245 212 237 257 268 256 383 368 357 341 347 354 355 364 355 335 334 334 334
177 148 163 135 188 195 180 172 191 165 180 183 210 194 148 185 149 204 211 212 174 207 248 241 180 229 232 243 253 251 394 382 369 354 330 356 356 369 376 369 352 346 337 334
175 171 187 158 154 175 205 172 185 204 193 165 167 173 162 206 163 209 194 217 177 173 232 240 243 240 237 220 268 260 386 368 353 334 350 355 351 340 341 347 345 344 349 347
189 163 160 163 184 187 181 189 200 195 162 192 186 191 199 192 193 190 215 216 201 235 177 233 230 228 248 276 250 387 384 365 350 331 371 339 324 317 316 314 318 321 328 327
174 190 172 140 204 170 191 175 175 199 149 214 217 156 195 169 169 175 231 210 228 233 177 242 229 242 278 262 260 401 372 354 335 371 346 326 314 318 324 322 319 316 318 314
161 175 189 163 209 182 161 203 177 185 183 170 193 198 184 193 189 213 240 229 244 243 187 239 232 255 270 246 382 400 358 343 333 349 331 324 320 324 325 325 328 333 329 317
176 144 189 181 196 160 185 197 198 190 201 154 213 196 210 169 178 227 225 242 250 185 245 228 249 238 250 262 387 373 350 341 364 332 318 318 340 331 320 318 326 340 381 336
176 190 179 186 175 189 177 164 214 166 181 202 166 201 191 202 208 150 222 250 245 181 213 240 273 262 242 282 391 360 341 334 338 322 311 319 314 304 310 322 329 365 355 351
185 170 180 185 156 193 174 211 188 219 175 205 207 185 192 216 223 221 229 251 211 238 245 257 274 247 269 414 373 356 333 344 322 319 305 317 306 310 312 330 336 324 319 333
191 185 179 181 161 167 178 175 174 196 221 199 192 198 211 197 228 236 244 246 241 250 243 277 261 244 281 402 366 349 330 335 324 315 306 312 304 326 329 335 342 328 307 321
202 187 171 192 187 212 203 180 201 211 225 215 199 220 221 224 237 255 251 241 250 241 271 259 241 276 383 389 359 339 327 330 314 319 311 299 298 332 355 345 317 311 309 310
194 215 205 153 206 176 215 197 206 232 205 215 221 224 216 236 259 246 252 252 244 263 263 245 261 376 403 377 355 333 329 324 320 310 301 289 301 306 308 312 309 304 302 305
187 169 191 166 219 186 180 227 197 182 229 223 215 222 229 232 247 258 250 246 255 265 258 251 293 415 400 373 343 327 331 322 314 308 294 287 288 290 314 307 295 295 292 299
200 214 188 173 220 210 216 209 208 224 222 217 230 218 231 255 245 240 246 257 265 254 243 284 425 414 394 366 341 323 324 315 313 303 290 287 281 276 285 287 287 286 294 286
234 176 214 180 179 206 194 229 216 219 224 222 218 232 252 259 236 251 247 263 253 237 272 408 432 406 387 361 336 323 319 311 308 299 288 286 276 275 286 284 281 282 283 288
184 180 215 176 217 224 222 225 216 217 227 224 230 239 256 248 253 243 263 249 236 265 304 418 420 404 386 355 331 318 315 311 306 300 298 289 278 271 271 271 270 269 263 273
207 203 218 217 217 215 230 224 223 232 222 231 250 256 249 254 242 270 254 240 258 300 439 425 421 404 383 352 330 317 313 307 303 297 291 282 279 272 270 264 265 267 265 270
201 176 221 222 226 226 231 237 226 239 239 259 251 253 243 244 269 245 240 250 279 442 417 414 415 405 383 354 331 316 311 305 298 296 288 276 284 279 273 272 275 266 266 265
221 231 223 222 219 234 229 231 252 262 258 251 249 241 246 262 239 241 246 272 448 425 421 409 402 409 381 356 332 316 307 304 301 289 288 280 276 265 275 272 272 270 272 264
220 223 230 225 234 228 240 264 254 247 246 245 235 245 263 246 246 240 271 334 443 432 416 403 396 409 380 358 335 318 305 306 296 299 293 287 279 276 266 271 266 269 276 265

GFSNW_2pvu_pres_252.txt.gz
Presure
164 172 170 174 174 166 169 133 166 180 174 165 142 200 151 204 192 223 205 165 174 179 170 186 206 221 214 242 207 189 255 180 230 241 263 284 265 403 390 379 377 383 439 432
175 146 164 160 169 157 164 161 182 169 165 183 181 188 201 185 215 190 181 130 181 152 177 193 166 196 243 248 213 169 178 240 238 257 287 262 384 379 367 357 384 376 432 411
177 169 156 172 162 162 140 174 175 158 180 174 185 180 180 195 191 169 195 196 197 200 162 154 185 200 252 256 245 248 181 244 247 280 261 365 384 370 354 369 372 362 370 424
160 162 165 164 162 177 181 181 173 171 188 181 183 181 195 171 200 171 213 195 197 174 172 201 209 195 248 254 245 246 184 245 259 278 264 384 369 359 348 369 352 354 353 345
168 161 169 163 163 168 156 150 179 142 180 187 174 193 203 179 201 183 193 153 187 231 192 185 200 195 249 252 245 222 251 246 228 251 391 378 362 347 367 359 361 364 350 347
169 173 169 165 174 164 184 145 174 184 189 184 161 177 174 178 178 187 189 180 184 213 210 194 190 235 254 251 251 180 245 274 263 262 383 363 344 358 378 379 373 361 349 337
170 165 167 177 171 169 176 180 145 162 174 173 172 180 205 190 179 186 206 165 186 212 204 201 218 246 252 251 241 256 253 246 248 386 372 346 340 371 363 357 363 367 349 341
175 175 156 171 164 172 184 175 150 142 187 181 168 171 144 186 205 180 178 165 206 203 190 221 241 260 254 245 250 245 276 252 286 388 366 337 365 340 329 321 326 328 337 346
172 160 172 164 175 181 174 178 162 184 146 198 188 194 168 174 185 208 213 190 199 235 215 213 236 256 255 250 258 274 272 248 406 382 351 368 340 327 326 326 327 331 320 317
178 173 172 171 175 180 158 177 185 181 189 180 173 185 212 174 170 197 195 209 215 198 185 233 250 255 248 257 249 272 249 303 385 356 340 339 330 319 317 322 326 324 323 321
184 180 170 181 174 158 164 181 172 180 185 184 171 200 188 184 182 198 222 218 202 162 220 234 244 259 256 247 275 254 254 353 377 351 373 331 326 328 335 326 322 317 327 338
178 150 169 181 160 176 162 197 195 188 166 160 182 179 206 177 180 190 196 206 192 212 232 240 257 256 258 263 265 245 283 382 363 356 350 331 318 338 318 317 322 335 390 378
183 173 177 150 179 176 181 186 195 193 166 196 176 177 171 183 181 234 219 236 210 235 251 242 262 260 250 272 244 258 398 365 351 363 338 321 310 323 317 313 340 336 355 351
180 178 180 173 174 181 185 199 169 201 176 198 182 190 238 189 180 234 207 210 213 233 244 252 257 260 265 262 245 285 376 362 347 346 333 321 321 312 315 335 341 335 331 323
170 175 159 160 181 187 172 195 174 197 201 201 195 185 185 226 186 194 185 238 232 257 244 259 265 249 271 243 268 405 371 343 345 338 320 314 307 302 341 355 336 321 317 317
176 187 180 175 175 177 190 187 196 192 170 202 177 180 209 189 219 164 243 241 260 244 263 267 251 275 246 248 286 401 358 342 337 324 322 308 302 357 357 327 317 311 303 301
185 178 192 193 192 191 181 191 185 201 207 226 214 179 182 196 192 228 231 241 265 262 264 254 266 262 244 271 421 386 359 337 333 323 320 306 301 325 322 313 309 305 294 289
190 188 186 190 192 191 191 188 201 195 214 198 207 204 219 182 235 232 237 247 267 263 256 257 275 245 258 320 408 385 352 337 325 321 309 299 304 316 300 300 297 299 298 292
194 195 190 189 197 192 189 189 170 192 182 179 195 186 191 230 231 240 249 272 261 259 252 277 255 252 275 413 409 375 343 338 321 314 302 292 287 294 295 295 298 292 287 286
193 179 194 199 202 202 182 191 201 194 194 198 216 193 233 230 242 279 269 259 255 248 275 267 246 273 435 420 397 366 340 333 317 310 299 287 285 286 286 283 296 290 287 284
181 184 167 196 192 203 192 171 204 199 207 197 213 232 226 234 249 266 261 257 250 271 262 244 261 435 434 412 392 362 334 329 318 311 296 289 287 282 287 276 275 277 280 277
193 173 181 199 199 195 201 211 184 197 219 196 226 225 235 258 268 259 258 247 269 261 250 253 278 434 430 409 388 356 332 326 315 308 294 293 288 278 275 274 271 273 273 268
183 186 191 203 182 217 220 216 196 227 221 239 234 230 268 271 257 258 245 264 264 261 249 275 448 432 424 408 386 350 332 325 313 305 292 298 287 283 275 275 270 268 267 262
191 188 200 206 189 221 200 219 216 184 229 243 230 277 271 252 260 247 259 265 247 247 264 431 433 421 415 411 385 354 330 322 312 302 290 295 288 287 275 274 275 272 282 281
196 212 203 219 222 235 200 203 185 231 242 231 269 267 253 258 246 256 265 253 248 258 349 443 430 413 408 411 386 356 330 321 313 302 290 286 288 276 282 273 277 279 275 274
219 218 216 202 223 194 195 225 233 244 233 272 263 253 254 246 250 266 249 247 250 279 452 438 425 410 400 410 387 362 332 319 313 305 294 287 286 278 276 274 274 269 265 273
229 210 208 189 190 227 228 236 243 236 269 268 254 250 243 249 266 246 252 248 274 458 446 434 421 406 396 408 386 367 340 319 313 308 299 290 282 280 280 277 275 271 272 276